| time (UTC) | temp F | wind direction | speed MPH | gust MPH | rain 1hr in | rain 24hr in | rain mn in | humidity % | barometer mb |
| 20260901040008 | 84 | 82 | 0.0 | 0.0 | 0.00 | 3.96 | 0.63 | 52 | 968.6 |
| 20260901034517 | 84 | 82 | 0.0 | 0.0 | 0.00 | 3.96 | 0.63 | 52 | 968.5 |
| 20260901033009 | 85 | 82 | 0.0 | 0.0 | 0.00 | 3.96 | 0.63 | 51 | 968.5 |
| 20260901031517 | 86 | 82 | 0.0 | 0.0 | 0.00 | 3.96 | 0.63 | 48 | 968.2 |
| 20260901030006 | 86 | 82 | 0.0 | 0.0 | 0.00 | 3.96 | 0.63 | 48 | 968.0 |
| 20260901024506 | 86 | 82 | 0.0 | 0.0 | 0.00 | 3.96 | 0.63 | 48 | 967.8 |
| 20260901023007 | 86 | 82 | 0.0 | 0.0 | 0.00 | 3.96 | 0.63 | 48 | 967.6 |
| 20260901021504 | 86 | 82 | 0.0 | 0.0 | 0.00 | 3.96 | 0.63 | 48 | 967.6 |
| 20260901020004 | 86 | 82 | 0.0 | 0.0 | 0.00 | 3.96 | 0.63 | 47 | 967.4 |
| 20260901014504 | 86 | 82 | 0.0 | 0.0 | 0.00 | 3.96 | 0.63 | 47 | 967.3 |
| 20260901013003 | 86 | 82 | 0.0 | 0.0 | 0.00 | 3.96 | 0.63 | 46 | 967.2 |
| 20260901011502 | 87 | 82 | 0.0 | 0.0 | 0.00 | 3.96 | 0.63 | 46 | 967.4 |
| 20260901010002 | 87 | 82 | 0.0 | 0.0 | 0.00 | 3.96 | 0.63 | 46 | 967.5 |
| 20260901004501 | 87 | 82 | 0.0 | 0.0 | 0.00 | 3.96 | 0.63 | 46 | 967.4 |
| 20260901003000 | 87 | 74 | 0.0 | 0.0 | 0.00 | 3.96 | 0.63 | 47 | 967.6 |
| 20260901001601 | 88 | 74 | 0.0 | 0.0 | 0.00 | 3.96 | 0.63 | 47 | 967.6 |
| 20260901000100 | 88 | 74 | 0.0 | 0.0 | 0.00 | 3.96 | 0.63 | 47 | 967.8 |
| 20260831234601 | 87 | 72 | 0.0 | 0.0 | 0.02 | 3.97 | 0.63 | 47 | 967.9 |
| 20260831233056 | 87 | 69 | 0.0 | 0.0 | 0.02 | 3.97 | 0.63 | 48 | 967.9 |
| 20260831231554 | 86 | 62 | 1.0 | 10.0 | 0.04 | 3.97 | 0.63 | 49 | 968.0 |
| 20260831230053 | 86 | 96 | 0.0 | 10.0 | 0.04 | 3.97 | 0.63 | 51 | 968.2 |
| 20260831224553 | 86 | 93 | 3.0 | 10.0 | 0.02 | 3.95 | 0.61 | 51 | 968.4 |
| 20260831223051 | 86 | 61 | 0.0 | 9.0 | 0.02 | 3.95 | 0.61 | 52 | 968.5 |
| 20260831221603 | 85 | 36 | 1.0 | 10.0 | 0.00 | 3.93 | 0.59 | 54 | 968.8 |
| 20260831220047 | 84 | 66 | 2.0 | 10.0 | 0.00 | 3.93 | 0.59 | 55 | 969.4 |
| 20260831214547 | 85 | 84 | 0.0 | 8.0 | 0.00 | 3.98 | 0.59 | 56 | 970.0 |
| 20260831213046 | 84 | 105 | 0.0 | 9.0 | 0.04 | 3.98 | 0.59 | 58 | 970.2 |
| 20260831211545 | 84 | 90 | 3.0 | 9.0 | 0.06 | 3.98 | 0.59 | 57 | 970.4 |
| 20260831210042 | 83 | 65 | 2.0 | 9.0 | 0.09 | 3.98 | 0.59 | 60 | 970.7 |
| 20260831204542 | 82 | 94 | 0.0 | 12.0 | 0.19 | 4.05 | 0.59 | 63 | 970.9 |
| 20260831203100 | 81 | 140 | 4.0 | 13.0 | 0.21 | 4.01 | 0.55 | 66 | 971.1 |
| 20260831201543 | 80 | 107 | 5.0 | 12.0 | 0.19 | 3.99 | 0.53 | 67 | 971.2 |
| 20260831200117 | 80 | 109 | 3.0 | 13.0 | 0.16 | 3.96 | 0.50 | 68 | 971.1 |
| 20260831194540 | 79 | 141 | 5.0 | 11.0 | 0.06 | 3.86 | 0.40 | 69 | 971.3 |
| 20260831193040 | 78 | 107 | 3.0 | 11.0 | 0.00 | 3.80 | 0.34 | 71 | 971.4 |
| 20260831191538 | 78 | 128 | 5.0 | 13.0 | 0.01 | 3.80 | 0.34 | 73 | 971.4 |
| 20260831190041 | 78 | 132 | 3.0 | 11.0 | 0.02 | 3.80 | 0.34 | 74 | 971.4 |
| 20260831184544 | 78 | 115 | 2.0 | 9.0 | 0.02 | 4.01 | 0.34 | 71 | 971.5 |
| 20260831183037 | 78 | 115 | 2.0 | 12.0 | 0.02 | 4.01 | 0.34 | 71 | 971.4 |
| 20260831181545 | 78 | 133 | 3.0 | 11.0 | 0.01 | 4.01 | 0.33 | 78 | 971.5 |
| 20260831180037 | 77 | 87 | 1.0 | 8.0 | 0.00 | 4.00 | 0.32 | 79 | 971.7 |
| 20260831174547 | 77 | 86 | 1.0 | 9.0 | 0.00 | 4.03 | 0.32 | 81 | 972.0 |
| 20260831173035 | 76 | 72 | 2.0 | 10.0 | 0.00 | 4.03 | 0.32 | 84 | 972.2 |
| 20260831171533 | 75 | 67 | 0.0 | 8.0 | 0.00 | 4.03 | 0.32 | 85 | 972.1 |
| 20260831170038 | 75 | 65 | 0.0 | 8.0 | 0.01 | 4.03 | 0.32 | 86 | 971.8 |
| 20260831164531 | 75 | 61 | 0.0 | 7.0 | 0.01 | 4.28 | 0.32 | 87 | 971.8 |
| 20260831163131 | 74 | 41 | 3.0 | 7.0 | 0.01 | 4.28 | 0.32 | 86 | 971.7 |
| 20260831161531 | 74 | 50 | 0.0 | 7.0 | 0.01 | 4.28 | 0.32 | 86 | 971.7 |
| 20260831160029 | 75 | 63 | 4.0 | 10.0 | 0.00 | 4.26 | 0.31 | 85 | 971.4 |
| 20260831154528 | 74 | 67 | 0.0 | 0.0 | 0.00 | 4.26 | 0.31 | 85 | 971.8 |
| 20260831153026 | 74 | 67 | 1.0 | 8.0 | 0.02 | 4.26 | 0.31 | 85 | 971.9 |
| 20260831151525 | 75 | 88 | 0.0 | 0.0 | 0.04 | 4.26 | 0.31 | 85 | 971.8 |
| 20260831150022 | 74 | 88 | 0.0 | 7.0 | 0.05 | 4.26 | 0.31 | 83 | 971.5 |
| 20260831144519 | 75 | 131 | 1.0 | 10.0 | 0.07 | 4.26 | 0.31 | 81 | 971.3 |
| 20260831143017 | 77 | 101 | 1.0 | 13.0 | 0.05 | 4.25 | 0.28 | 76 | 971.0 |
| 20260831141510 | 78 | 115 | 6.0 | 13.0 | 0.03 | 4.23 | 0.27 | 73 | 970.6 |
| 20260831140014 | 78 | 117 | 5.0 | 14.0 | 0.02 | 4.22 | 0.26 | 72 | 970.3 |
| 20260831134502 | 79 | 89 | 6.0 | 15.0 | 0.00 | 4.20 | 0.24 | 70 | 969.8 |
| 20260831133059 | 80 | 92 | 3.0 | 11.0 | 0.00 | 4.20 | 0.24 | 66 | 969.5 |
| 20260831131600 | 81 | 53 | 0.0 | 7.0 | 0.00 | 4.20 | 0.24 | 64 | 969.0 |
| 20260831130054 | 80 | 190 | 0.0 | 0.0 | 0.00 | 4.20 | 0.24 | 64 | 968.7 |
| 20260831124556 | 80 | 190 | 0.0 | 0.0 | 0.00 | 4.20 | 0.24 | 64 | 968.6 |
| 20260831123051 | 80 | 190 | 0.0 | 10.0 | 0.00 | 4.20 | 0.24 | 64 | 968.4 |
| 20260831121550 | 80 | 55 | 0.0 | 0.0 | 0.00 | 4.20 | 0.24 | 66 | 968.2 |
| 20260831120059 | 81 | 53 | 0.0 | 0.0 | 0.00 | 4.20 | 0.24 | 63 | 967.8 |
| 20260831114546 | 81 | 53 | 0.0 | 0.0 | 0.00 | 4.20 | 0.24 | 62 | 967.6 |
| 20260831113049 | 80 | 53 | 0.0 | 0.0 | 0.00 | 4.20 | 0.24 | 61 | 967.5 |
| 20260831111543 | 80 | 53 | 0.0 | 0.0 | 0.00 | 4.20 | 0.24 | 63 | 967.2 |
| 20260831110043 | 81 | 53 | 0.0 | 6.0 | 0.00 | 4.20 | 0.24 | 62 | 967.3 |
| 20260831104542 | 81 | 41 | 0.0 | 0.0 | 0.00 | 4.20 | 0.24 | 61 | 967.0 |
| 20260831103043 | 81 | 42 | 0.0 | 0.0 | 0.00 | 4.20 | 0.24 | 61 | 966.5 |
| 20260831101541 | 81 | 42 | 0.0 | 6.0 | 0.00 | 4.20 | 0.24 | 60 | 965.9 |
| 20260831100038 | 81 | 51 | 0.0 | 8.0 | 0.00 | 4.20 | 0.24 | 60 | 966.5 |
| 20260831094537 | 81 | 64 | 1.0 | 6.0 | 0.04 | 4.20 | 0.24 | 61 | 966.5 |
| 20260831093035 | 80 | 45 | 0.0 | 10.0 | 0.07 | 4.20 | 0.24 | 62 | 966.6 |
| 20260831091534 | 80 | 48 | 7.0 | 16.0 | 0.14 | 4.20 | 0.24 | 62 | 966.7 |
| 20260831084530 | 80 | 57 | 8.0 | 15.0 | 0.11 | 4.16 | 0.20 | 63 | 967.2 |
| 20260831083029 | 80 | 32 | 8.0 | 20.0 | 0.08 | 4.13 | 0.17 | 65 | 967.4 |
| 20260831081526 | 81 | 24 | 8.0 | 15.0 | 0.01 | 4.05 | 0.10 | 62 | 967.4 |
| 20260831080032 | 82 | 30 | 6.0 | 18.0 | 0.10 | 4.05 | 0.10 | 61 | 967.5 |
| 20260831074525 | 81 | 360 | 1.0 | 11.0 | 0.11 | 4.05 | 0.09 | 64 | 967.5 |
| 20260831073021 | 82 | 36 | 1.0 | 10.0 | 0.13 | 4.05 | 0.09 | 64 | 967.4 |
| 20260831071519 | 83 | 30 | 7.0 | 18.0 | 0.13 | 4.05 | 0.09 | 63 | 967.1 |
| 20260831070015 | 82 | 337 | 10.0 | 22.0 | 0.15 | 3.96 | 0.00 | 64 | 967.3 |
| 20260831064515 | 82 | 11 | 5.0 | 17.0 | 0.13 | 4.08 | 3.94 | 66 | 967.1 |
| 20260831063015 | 83 | 25 | 4.0 | 16.0 | 0.11 | 4.05 | 3.92 | 64 | 966.4 |
| 20260831061512 | 83 | 345 | 5.0 | 22.0 | 0.25 | 4.05 | 3.92 | 62 | 966.4 |
| 20260831060012 | 83 | 350 | 10.0 | 18.0 | 0.17 | 3.95 | 3.81 | 61 | 966.4 |
| 20260831054512 | 83 | 207 | 2.0 | 12.0 | 0.53 | 4.16 | 3.81 | 64 | 965.8 |
| 20260831053011 | 83 | 209 | 8.0 | 15.0 | 0.92 | 4.16 | 3.81 | 63 | 965.7 |
| 20260831051518 | 84 | 241 | 9.0 | 16.0 | 0.82 | 4.01 | 3.67 | 60 | 965.7 |
| 20260831050010 | 84 | 240 | 8.0 | 21.0 | 1.10 | 3.99 | 3.64 | 60 | 966.0 |
| 20260831044510 | 83 | 189 | 12.0 | 20.0 | 1.65 | 5.34 | 3.26 | 63 | 966.1 |
| 20260831043008 | 85 | 206 | 15.0 | 23.0 | 2.25 | 4.97 | 2.89 | 59 | 966.1 |
| 20260831041504 | 87 | 198 | 13.0 | 22.0 | 2.18 | 4.88 | 2.81 | 56 | 965.8 |